SCP
0 0 0 0 0 0 0 0 0 0 0 0 0 0 0 0 0 0 0 0 0 0 0 0 0 0 0 0 0 0 0 0 0 0 0 0 0 0 0 0 0 0 0 0
0 0 0 0 0 0 0 0 0 0 0 0 0 0 0 0 0 0 0 0 0 0 0 0 0 0 0 0 0 0 0 0 0 0 0 0 0 0 0 0 0 0 0 0
0 0 0 0 0 0 0 0 0 0 0 0 0 0 0 0 0 0 0 0 0 0 0 0 0 0 0 0 0 0 0 0 0 0 0 0 0 0 0 0 0 0 0 0
0 0 0 0 0 0 0 0 0 0 0 0 0 0 0 0 0 0 0 0 0 0 0 0 0 0 0 0 0 0 0 0 0 0 0 0 0 0 0 0 0 0 0 0
0 0 0 0 0 0 0 0 0 0 0 0 0 0 0 0 0 0 0 0 0 0 0 0 0 0 0 0 0 0 0 0 0 0 0 0 0 0 0 0 0 0 0 0
0 0 0 0 0 0 0 0 0 0 0 0 0 0 0 0 0 0 0 0 0 0 0 0 0 0 0 0 0 0 0 0 0 0 0 0 0 0 0 0 0 0 0 0
0 0 0 0 0 0 0 0 0 0 0 0 0 0 0 0 0 0 0 0 0 0 0 0 0 0 0 0 0 0 0 0 0 0 0 0 0 0 0 0 0 0 0 0
0 0 0 0 0 0 0 0 0 0 0 0 0 0 0 0 0 0 0 0 0 0 0 0 0 0 0 0 0 0 0 0 0 0 0 0 0 0 0 0 0 0 0 0
0 0 0 0 0 0 0 0 0 0 0 0 0 0 0 0 0 0 0 0 0 0 0 0 0 0 0 0 0 0 0 0 0 0 0 0 0 0 0 0 0 0 0 0
0 0 0 0 0 0 0 0 0 0 0 0 0 0 0 0 0 0 0 0 0 0 0 0 0 0 0 0 0 0 0 0 0 0 0 0 0 0 0 0 0 0 0 0
0 0 0 0 0 0 0 0 0 0 0 0 0 0 0 0 0 0 0 0 0 0 0 0 0 0 0 0 0 0 0 0 0 0 0 0 0 0 0 0 0 0 0 0
0 0 0 0 0 0 0 0 0 0 0 0 0 0 0 0 0 0 0 0 0 0 0 0 0 0 0 0 0 0 0 0 0 0 0 0 0 0 0 0 0 0 0 0
0 0 0 0 0 0 0 0 0 0 0 0 0 0 0 0 0 0 0 0 0 0 0 0 0 0 0 0 0 0 0 0 0 0 0 0 0 0 0 0 0 0 0 0
0 0 0 0 0 0 0 0 0 0 0 0 0 0 0 0 0 0 0 0 0 0 0 0 0 0 0 0 0 0 0 0 0 0 0 0 0 0 0 0 0 0 0 0
0 0 0 0 0 0 0 0 0 0 0 0 0 0 0 0 0 0 0 0 0 0 0 0 0 0 0 0 0 0 0 0 0 0 0 0 0 0 0 0 0 0 0 0
0 0 0 0 0 0 0 0 0 0 0 0 0 0 0 0 0 0 0 0 0 0 0 0 0 0 0 0 0 0 0 0 0 0 0 0 0 0 0 0 0 0 0 0
0 0 0 0 0 0 0 0 0 0 0 0 0 0 0 0 0 0 0 0 0 0 0 0 0 0 0 0 0 0 0 0 0 0 0 0 0 0 0 0 0 0 0 0
0 0 0 0 0 0 0 0 0 0 0 0 0 0 0 0 0 0 0 0 0 0 0 0 0 0 0 0 0 0 0 0 0 0 0 0 0 0 0 0 0 0 0 0
0 0 0 0 0 0 0 0 0 0 0 0 0 0 0 0 0 0 0 0 0 0 0 0 0 0 0 0 0 0 0 0 0 0 0 0 0 0 0 0 0 0 0 0
0 0 0 0 0 0 0 0 0 0 0 0 0 0 0 0 0 0 0 0 0 0 0 0 0 0 0 0 0 0 0 0 0 0 0 0 0 0 0 0 0 0 0 0
0 0 0 0 0 0 0 0 0 0 0 0 0 0 0 0 0 0 0 0 0 0 0 0 0 0 0 0 0 0 0 0 0 0 0 0 0 0 0 0 0 0 0 0
0 0 0 0 0 0 0 0 0 0 0 0 0 0 0 0 0 0 0 0 0 0 0 0 0 0 0 0 0 0 0 0 0 0 0 0 0 0 0 0 0 0 0 0
0 0 0 0 0 0 0 0 0 0 0 0 0 0 0 0 0 0 0 0 0 0 0 0 0 0 0 0 0 0 0 0 0 0 0 0 0 0 0 0 0 0 0 0
0 0 0 0 0 0 0 0 0 0 0 0 0 0 0 0 0 0 0 0 0 0 0 0 0 0 0 0 0 0 0 0 0 0 0 0 0 0 0 0 0 0 0 0
0 0 0 0 0 0 0 0 0 0 0 0 0 0 0 0 0 0 0 0 0 0 0 0 0 0 0 0 0 0 0 0 0 0 0 0 0 0 0 0 0 0 0 0
0 0 0 0 0 0 0 0 0 0 0 0 0 0 0 0 0 0 0 0 0 0 0 0 0 0 0 0 0 0 0 0 0 0 0 0 0 0 0 0 0 0 0 0
0 0 0 0 0 0 0 0 0 0 0 0 0 0 0 0 0 0 0 0 0 0 0 0 0 0 0 0 0 0 0 0 0 0 0 0 0 0 0 0 0 0 0 0
Wind_Speed
6 5 6 7 8 10 12 12 10 9 10 11 8 8 8 6 6 8 8 10 11 11 9 8 8 7 7 6 5 5 4 3 4 4 4 4 4 5 5 6 6 7 7 7
4 5 6 6 7 9 11 10 11 9 11 9 5 4 5 6 8 9 10 10 10 10 10 10 9 8 7 6 5 4 4 4 4 4 4 5 5 5 6 6 7 7 7 8
4 3 2 7 9 10 7 8 10 14 15 6 5 7 8 9 9 10 9 9 10 10 10 9 9 8 7 6 4 4 3 3 4 4 5 5 5 5 6 7 7 7 8 8
4 3 8 10 6 8 9 9 10 8 6 5 7 4 2 5 8 8 8 8 8 8 8 7 6 6 5 4 4 3 3 4 4 4 5 6 6 6 7 6 7 7 8 8
5 5 7 7 5 6 8 8 7 9 7 3 4 3 2 2 4 6 7 7 7 7 7 7 6 6 5 3 3 2 4 5 5 5 6 6 7 7 7 6 7 7 7 8
5 5 8 9 5 3 4 6 6 7 7 7 7 3 5 3 4 6 7 7 7 7 7 6 5 5 5 3 3 4 5 5 5 5 6 7 7 8 7 6 8 8 8 8
6 6 8 8 3 6 6 9 4 7 8 10 9 6 4 6 5 6 7 7 8 8 6 5 5 4 4 3 4 5 5 5 5 6 6 7 7 6 7 7 8 8 9 9
6 6 11 6 7 9 9 3 4 5 6 8 5 4 6 7 7 8 7 7 7 6 4 3 4 4 3 4 5 4 4 5 6 6 6 6 6 7 7 7 8 9 9 9
11 10 6 7 9 6 5 5 5 6 5 8 7 6 6 6 7 7 7 6 5 5 4 2 2 3 4 4 4 4 5 6 6 7 6 6 6 7 7 6 7 8 8 9
5 7 5 5 4 4 5 6 5 6 7 9 8 8 8 8 7 6 5 5 4 4 3 2 2 3 4 4 4 4 6 6 6 6 7 6 6 6 6 6 7 8 9 10
6 5 1 4 7 6 5 4 5 5 6 8 9 8 8 8 7 6 5 4 4 4 3 3 3 4 4 4 4 5 6 6 6 6 7 7 6 6 8 7 9 11 9 8
9 9 8 8 7 8 8 7 7 7 5 5 8 9 8 7 6 5 5 4 3 3 3 3 4 5 5 4 4 5 6 6 6 5 6 6 7 8 12 14 20 22 21 19
6 5 5 3 4 7 7 7 6 7 8 7 6 7 8 6 5 5 4 4 3 3 4 4 4 5 6 5 5 6 7 7 6 6 6 7 7 8 11 12 16 19 20 22
4 6 4 4 5 6 6 6 6 6 5 7 6 7 7 6 5 5 4 3 3 3 4 4 5 6 6 5 5 6 7 9 8 6 6 7 8 8 9 11 12 9 11 18
5 5 6 5 5 5 6 7 8 7 6 6 6 7 7 6 5 4 3 2 2 3 4 4 6 7 6 6 6 7 7 6 6 6 7 7 8 8 8 10 11 11 9 10
5 4 5 6 7 7 7 8 8 7 7 6 6 6 5 5 4 2 2 2 2 4 5 5 7 8 7 6 7 6 6 13 12 8 7 7 7 8 9 10 10 10 10 9
8 7 7 7 7 7 6 7 8 8 7 7 6 6 5 4 2 2 2 3 4 5 6 6 8 8 7 7 7 6 6 9 15 11 7 8 8 9 9 10 10 10 10 12
7 8 8 9 9 8 7 7 8 8 6 6 6 5 4 3 3 3 3 3 4 6 7 7 7 7 7 7 6 6 6 7 7 8 8 8 9 9 9 10 11 12 11 11
6 7 7 8 9 9 8 7 7 7 6 6 6 4 3 2 3 3 3 4 5 7 7 6 12 9 8 9 11 6 7 8 9 8 8 13 13 9 9 10 11 11 11 11
7 8 9 9 8 8 9 8 7 6 5 5 4 3 2 2 3 3 4 5 6 6 7 9 9 7 8 9 13 7 7 9 10 9 9 9 10 10 9 10 11 11 11 10
10 10 11 10 9 8 8 8 7 6 4 4 3 3 3 3 3 3 4 6 7 7 7 12 8 6 7 10 14 7 7 8 9 9 9 10 10 11 11 11 11 11 11 11
9 10 10 10 10 8 5 5 5 5 3 2 1 2 2 4 5 5 6 7 7 11 8 6 6 11 14 17 7 6 7 9 9 8 9 9 10 11 11 11 11 11 11 10
8 9 9 8 8 7 5 4 4 3 2 1 2 3 4 4 4 4 7 5 5 12 9 6 12 20 23 12 6 7 8 9 9 9 9 10 10 11 11 12 11 11 10 10
8 8 7 7 6 6 4 2 1 1 1 2 3 4 4 4 5 5 6 11 14 16 8 12 20 22 21 8 6 7 8 9 9 10 10 10 10 10 10 11 11 11 11 12
7 7 6 6 5 3 2 1 1 1 2 3 4 5 4 4 5 6 6 7 13 15 9 12 20 22 13 8 8 9 9 9 11 11 10 10 10 11 11 11 11 11 11 11
5 4 3 3 2 1 1 0 1 2 2 3 4 4 4 4 6 6 6 8 10 15 11 8 9 13 9 9 9 10 10 11 12 10 11 12 12 12 12 12 13 12 12 12
5 4 3 2 2 1 0 0 1 2 3 4 6 5 5 5 6 7 8 8 8 8 8 8 8 8 9 9 10 10 10 10 10 10 11 11 11 11 12 13 12 12 11 12
Wind_Direction
212 211 175 199 206 193 199 208 212 231 229 243 239 229 225 212 193 182 183 183 182 180 175 169 165 165 166 167 167 166 171 196 229 244 252 259 267 270 274 276 276 277 280 281
218 216 205 221 222 207 213 220 228 247 258 242 240 216 210 200 191 192 192 187 181 174 169 169 169 167 164 167 172 167 183 217 239 251 260 264 267 270 274 276 276 277 277 278
217 219 193 245 221 207 208 209 200 227 245 234 216 215 211 202 198 198 191 180 175 173 171 170 169 164 167 172 169 173 200 230 247 253 261 264 267 271 272 274 274 277 276 275
167 157 223 238 220 203 214 233 217 228 244 220 216 208 206 196 193 191 178 169 165 158 155 154 152 151 152 156 166 187 219 243 252 255 260 265 268 269 271 269 271 272 275 275
154 204 259 284 241 190 199 252 226 221 229 184 124 80 333 269 187 179 169 157 150 148 144 142 146 148 145 158 176 207 237 249 253 253 258 266 269 271 271 272 274 272 273 275
153 185 225 238 224 174 137 262 242 191 186 168 138 163 247 193 143 133 128 130 132 130 126 134 147 143 146 177 203 233 244 250 254 255 257 263 267 271 271 271 273 278 278 274
175 210 249 247 195 124 175 239 214 177 175 170 184 198 175 135 126 129 128 129 128 127 132 148 150 145 167 201 230 241 249 258 263 262 261 263 266 268 274 277 281 281 281 278
169 202 246 220 149 184 212 192 165 169 172 174 174 130 132 136 136 135 130 127 128 129 138 151 153 156 195 233 244 254 261 266 268 268 269 274 271 275 276 279 284 285 286 286
191 210 225 184 195 206 166 170 180 171 170 154 149 157 152 147 145 141 137 135 132 137 144 161 176 179 218 247 260 267 271 270 272 274 272 271 272 278 282 279 280 287 287 290
217 246 233 216 213 193 184 183 177 166 159 157 160 161 156 152 150 145 142 142 137 138 154 200 224 227 234 256 267 268 271 274 276 278 279 276 272 271 276 279 281 284 286 289
219 244 216 234 214 198 179 160 148 146 159 164 155 157 159 158 157 153 145 143 144 158 189 225 246 257 260 264 269 271 273 275 277 274 275 279 274 266 276 265 271 286 284 281
209 204 187 216 209 181 173 179 169 154 150 156 159 156 151 152 151 147 146 146 156 182 214 241 255 266 271 269 263 266 274 275 274 275 276 277 284 288 282 285 293 294 293 293
196 176 176 194 171 170 175 176 167 162 158 152 147 144 143 141 143 142 147 160 185 211 231 248 261 269 273 272 266 263 266 274 274 272 276 280 283 289 296 298 293 293 294 296
159 132 146 180 179 166 154 145 132 123 130 135 134 130 129 126 135 147 168 190 205 226 247 256 264 271 274 273 270 268 269 278 282 272 273 276 278 280 285 294 300 293 288 293
186 174 169 157 137 133 131 127 124 126 124 118 123 130 133 138 153 171 187 198 221 249 260 265 270 275 278 275 272 272 273 273 273 270 271 273 278 282 284 285 288 293 293 293
168 139 136 142 149 145 137 140 142 146 140 132 132 136 139 142 151 170 198 203 227 258 267 270 272 275 280 276 274 273 270 283 292 286 279 281 282 283 285 286 287 289 291 294
155 168 168 166 164 160 159 155 152 149 143 141 143 138 132 130 142 199 241 249 249 258 265 267 271 278 279 275 271 271 270 279 290 291 280 281 282 282 283 284 286 288 288 292
183 182 173 166 162 154 145 137 136 137 140 141 135 133 140 157 195 237 260 277 284 283 274 266 269 279 276 274 271 268 270 273 274 276 280 281 285 284 286 287 288 289 290 293
148 149 146 144 143 140 138 136 135 132 131 132 136 148 165 194 221 247 266 276 279 283 280 276 295 296 283 281 290 273 272 278 281 281 282 289 293 287 285 286 287 288 290 291
123 124 122 119 119 124 127 127 125 123 127 130 131 141 190 237 247 258 265 264 257 256 269 284 288 279 277 278 292 277 273 279 283 286 287 285 287 287 286 286 287 287 288 287
116 115 115 114 110 110 118 124 124 126 127 132 148 188 232 257 261 258 264 278 276 269 275 289 290 281 283 287 293 279 277 281 284 286 288 289 289 289 288 287 287 288 288 288
112 114 113 113 111 105 102 107 116 122 127 140 182 222 255 271 273 268 253 255 272 290 294 278 278 289 297 300 288 280 281 284 286 285 284 285 286 287 287 287 286 287 286 284
109 110 110 111 113 109 97 96 109 124 149 202 238 254 260 265 266 274 286 275 274 292 297 279 292 300 304 304 289 285 286 286 286 285 284 283 283 284 285 285 285 285 284 284
105 104 104 103 103 102 100 97 95 117 235 263 262 262 265 277 278 258 260 289 300 302 296 294 302 305 309 303 290 287 286 285 284 283 283 283 282 283 284 285 285 284 283 282
105 103 104 105 103 108 119 97 27 321 294 283 280 275 264 253 266 283 283 284 296 304 297 299 304 307 306 292 289 287 285 283 285 289 286 287 287 286 284 284 283 284 284 283
103 104 103 104 113 120 117 95 299 293 295 296 295 288 283 278 276 282 286 287 287 298 299 294 293 297 292 288 287 286 286 290 292 290 286 286 285 285 285 285 284 283 283 281
90 89 86 74 61 65 61 300 285 288 289 290 294 294 293 293 292 292 292 293 294 294 293 292 291 289 289 288 288 287 287 287 286 286 286 286 286 286 286 284 284 283 282 281